CCSDS_OMM_VERS = 2.0 CREATION_DATE = ORIGINATOR = OBJECT_NAME = HST OBJECT_ID = 1990-037B CENTER_NAME = EARTH REF_FRAME = TEME TIME_SYSTEM = UTC MEAN_ELEMENT_THEORY = SGP/SGP4 EPOCH = 2026-09-12T05:15:24.763104 MEAN_MOTION = 15.31621652 ECCENTRICITY = .00017951 INCLINATION = 28.473 RA_OF_ASC_NODE = 205.3366 ARG_OF_PERICENTER = 39.5104 MEAN_ANOMALY = 320.5623 EPHEMERIS_TYPE = 0 CLASSIFICATION_TYPE = U NORAD_CAT_ID = 20580 ELEMENT_SET_NO = 999 REV_AT_EPOCH = 80192 BSTAR = .14867E-3 MEAN_MOTION_DOT = .49060E-4 MEAN_MOTION_DDOT = 0 CCSDS_OMM_VERS = 2.0 CREATION_DATE = ORIGINATOR = OBJECT_NAME = POLAR OBJECT_ID = 1996-013A CENTER_NAME = EARTH REF_FRAME = TEME TIME_SYSTEM = UTC MEAN_ELEMENT_THEORY = SGP/SGP4 EPOCH = 2026-09-11T07:18:24.221664 MEAN_MOTION = 1.29845775 ECCENTRICITY = .655829 INCLINATION = 79.982 RA_OF_ASC_NODE = 226.0171 ARG_OF_PERICENTER = 206.1267 MEAN_ANOMALY = 95.8749 EPHEMERIS_TYPE = 0 CLASSIFICATION_TYPE = U NORAD_CAT_ID = 23802 ELEMENT_SET_NO = 999 REV_AT_EPOCH = 14597 BSTAR = 0 MEAN_MOTION_DOT = .10400E-5 MEAN_MOTION_DDOT = 0 CCSDS_OMM_VERS = 2.0 CREATION_DATE = ORIGINATOR = OBJECT_NAME = SWAS OBJECT_ID = 1998-071A CENTER_NAME = EARTH REF_FRAME = TEME TIME_SYSTEM = UTC MEAN_ELEMENT_THEORY = SGP/SGP4 EPOCH = 2026-09-12T06:26:00.233664 MEAN_MOTION = 15.10080214 ECCENTRICITY = .00033088 INCLINATION = 69.8982 RA_OF_ASC_NODE = 2.8729 ARG_OF_PERICENTER = 147.0198 MEAN_ANOMALY = 213.1174 EPHEMERIS_TYPE = 0 CLASSIFICATION_TYPE = U NORAD_CAT_ID = 25560 ELEMENT_SET_NO = 999 REV_AT_EPOCH = 51041 BSTAR = .17137E-3 MEAN_MOTION_DOT = .26920E-4 MEAN_MOTION_DDOT = 0 CCSDS_OMM_VERS = 2.0 CREATION_DATE = ORIGINATOR = OBJECT_NAME = CXO OBJECT_ID = 1999-040B CENTER_NAME = EARTH REF_FRAME = TEME TIME_SYSTEM = UTC MEAN_ELEMENT_THEORY = SGP/SGP4 EPOCH = 2026-09-13T15:32:27.077568 MEAN_MOTION = 0.37808225 ECCENTRICITY = .76964658 INCLINATION = 57.3946 RA_OF_ASC_NODE = 114.3238 ARG_OF_PERICENTER = 309.4554 MEAN_ANOMALY = 0.6118 EPHEMERIS_TYPE = 0 CLASSIFICATION_TYPE = U NORAD_CAT_ID = 25867 ELEMENT_SET_NO = 999 REV_AT_EPOCH = 1766 BSTAR = 0 MEAN_MOTION_DOT = .75000E-5 MEAN_MOTION_DDOT = 0 CCSDS_OMM_VERS = 2.0 CREATION_DATE = ORIGINATOR = OBJECT_NAME = XMM-NEWTON OBJECT_ID = 1999-066A CENTER_NAME = EARTH REF_FRAME = TEME TIME_SYSTEM = UTC MEAN_ELEMENT_THEORY = SGP/SGP4 EPOCH = 2026-09-14T02:38:50.715744 MEAN_MOTION = 0.50126814 ECCENTRICITY = .46491325 INCLINATION = 64.0154 RA_OF_ASC_NODE = 281.8333 ARG_OF_PERICENTER = 63.3176 MEAN_ANOMALY = 0.1184 EPHEMERIS_TYPE = 0 CLASSIFICATION_TYPE = U NORAD_CAT_ID = 25989 ELEMENT_SET_NO = 999 REV_AT_EPOCH = 2345 BSTAR = 0 MEAN_MOTION_DOT = .50000E-6 MEAN_MOTION_DDOT = 0 CCSDS_OMM_VERS = 2.0 CREATION_DATE = ORIGINATOR = OBJECT_NAME = TERRA OBJECT_ID = 1999-068A CENTER_NAME = EARTH REF_FRAME = TEME TIME_SYSTEM = UTC MEAN_ELEMENT_THEORY = SGP/SGP4 EPOCH = 2026-09-12T06:12:30.582720 MEAN_MOTION = 14.6115869 ECCENTRICITY = .00015531 INCLINATION = 97.9374 RA_OF_ASC_NODE = 301.3181 ARG_OF_PERICENTER = 353.3189 MEAN_ANOMALY = 48.7649 EPHEMERIS_TYPE = 0 CLASSIFICATION_TYPE = U NORAD_CAT_ID = 25994 ELEMENT_SET_NO = 999 REV_AT_EPOCH = 42232 BSTAR = .55821E-4 MEAN_MOTION_DOT = .23100E-5 MEAN_MOTION_DDOT = 0 CCSDS_OMM_VERS = 2.0 CREATION_DATE = ORIGINATOR = OBJECT_NAME = TIMED OBJECT_ID = 2001-055B CENTER_NAME = EARTH REF_FRAME = TEME TIME_SYSTEM = UTC MEAN_ELEMENT_THEORY = SGP/SGP4 EPOCH = 2026-09-12T04:20:07.357344 MEAN_MOTION = 14.95450248 ECCENTRICITY = .00019425 INCLINATION = 74.0665 RA_OF_ASC_NODE = 59.8333 ARG_OF_PERICENTER = 237.204 MEAN_ANOMALY = 122.8958 EPHEMERIS_TYPE = 0 CLASSIFICATION_TYPE = U NORAD_CAT_ID = 26998 ELEMENT_SET_NO = 999 REV_AT_EPOCH = 34382 BSTAR = .80929E-4 MEAN_MOTION_DOT = .85500E-5 MEAN_MOTION_DDOT = 0 CCSDS_OMM_VERS = 2.0 CREATION_DATE = ORIGINATOR = OBJECT_NAME = CORIOLIS OBJECT_ID = 2003-001A CENTER_NAME = EARTH REF_FRAME = TEME TIME_SYSTEM = UTC MEAN_ELEMENT_THEORY = SGP/SGP4 EPOCH = 2026-09-12T00:13:29.603424 MEAN_MOTION = 14.19965807 ECCENTRICITY = .00133769 INCLINATION = 98.7167 RA_OF_ASC_NODE = 260.5837 ARG_OF_PERICENTER = 327.1181 MEAN_ANOMALY = 32.9162 EPHEMERIS_TYPE = 0 CLASSIFICATION_TYPE = U NORAD_CAT_ID = 27640 ELEMENT_SET_NO = 999 REV_AT_EPOCH = 22654 BSTAR = .55517E-4 MEAN_MOTION_DOT = .74000E-6 MEAN_MOTION_DDOT = 0 CCSDS_OMM_VERS = 2.0 CREATION_DATE = ORIGINATOR = OBJECT_NAME = SORCE OBJECT_ID = 2003-004A CENTER_NAME = EARTH REF_FRAME = TEME TIME_SYSTEM = UTC MEAN_ELEMENT_THEORY = SGP/SGP4 EPOCH = 2026-09-12T03:07:18.098112 MEAN_MOTION = 15.04097885 ECCENTRICITY = .00184367 INCLINATION = 39.99 RA_OF_ASC_NODE = 125.4775 ARG_OF_PERICENTER = 312.8964 MEAN_ANOMALY = 47.0283 EPHEMERIS_TYPE = 0 CLASSIFICATION_TYPE = U NORAD_CAT_ID = 27651 ELEMENT_SET_NO = 999 REV_AT_EPOCH = 28499 BSTAR = .14367E-3 MEAN_MOTION_DOT = .18790E-4 MEAN_MOTION_DDOT = 0 CCSDS_OMM_VERS = 2.0 CREATION_DATE = ORIGINATOR = OBJECT_NAME = MOST OBJECT_ID = 2003-031D CENTER_NAME = EARTH REF_FRAME = TEME TIME_SYSTEM = UTC MEAN_ELEMENT_THEORY = SGP/SGP4 EPOCH = 2026-09-12T06:59:53.003616 MEAN_MOTION = 14.2133739 ECCENTRICITY = .00099627 INCLINATION = 98.7081 RA_OF_ASC_NODE = 261.8151 ARG_OF_PERICENTER = 7.7134 MEAN_ANOMALY = 352.4194 EPHEMERIS_TYPE = 0 CLASSIFICATION_TYPE = U NORAD_CAT_ID = 27843 ELEMENT_SET_NO = 999 REV_AT_EPOCH = 20308 BSTAR = .35652E-4 MEAN_MOTION_DOT = .34000E-6 MEAN_MOTION_DDOT = 0 CCSDS_OMM_VERS = 2.0 CREATION_DATE = ORIGINATOR = OBJECT_NAME = SCISAT 1 OBJECT_ID = 2003-036A CENTER_NAME = EARTH REF_FRAME = TEME TIME_SYSTEM = UTC MEAN_ELEMENT_THEORY = SGP/SGP4 EPOCH = 2026-09-12T06:26:52.262016 MEAN_MOTION = 14.81535573 ECCENTRICITY = .00065648 INCLINATION = 73.9324 RA_OF_ASC_NODE = 358.3078 ARG_OF_PERICENTER = 32.7106 MEAN_ANOMALY = 327.4476 EPHEMERIS_TYPE = 0 CLASSIFICATION_TYPE = U NORAD_CAT_ID = 27858 ELEMENT_SET_NO = 999 REV_AT_EPOCH = 24434 BSTAR = .59197E-4 MEAN_MOTION_DOT = .42800E-5 MEAN_MOTION_DDOT = 0 CCSDS_OMM_VERS = 2.0 CREATION_DATE = ORIGINATOR = OBJECT_NAME = SWIFT OBJECT_ID = 2004-047A CENTER_NAME = EARTH REF_FRAME = TEME TIME_SYSTEM = UTC MEAN_ELEMENT_THEORY = SGP/SGP4 EPOCH = 2026-09-12T05:58:08.562144 MEAN_MOTION = 15.80115486 ECCENTRICITY = .00021388 INCLINATION = 20.5507 RA_OF_ASC_NODE = 228.4892 ARG_OF_PERICENTER = 171.2867 MEAN_ANOMALY = 188.7618 EPHEMERIS_TYPE = 0 CLASSIFICATION_TYPE = U NORAD_CAT_ID = 28485 ELEMENT_SET_NO = 999 REV_AT_EPOCH = 20059 BSTAR = .65200E-3 MEAN_MOTION_DOT = .13096E-2 MEAN_MOTION_DDOT = 0 CCSDS_OMM_VERS = 2.0 CREATION_DATE = ORIGINATOR = OBJECT_NAME = HINODE (SOLAR-B) OBJECT_ID = 2006-041A CENTER_NAME = EARTH REF_FRAME = TEME TIME_SYSTEM = UTC MEAN_ELEMENT_THEORY = SGP/SGP4 EPOCH = 2026-09-12T01:12:48.801312 MEAN_MOTION = 14.6871832 ECCENTRICITY = .0017788 INCLINATION = 98.0551 RA_OF_ASC_NODE = 269.928 ARG_OF_PERICENTER = 17.032 MEAN_ANOMALY = 343.1479 EPHEMERIS_TYPE = 0 CLASSIFICATION_TYPE = U NORAD_CAT_ID = 29479 ELEMENT_SET_NO = 999 REV_AT_EPOCH = 6762 BSTAR = .74463E-4 MEAN_MOTION_DOT = .38500E-5 MEAN_MOTION_DDOT = 0 CCSDS_OMM_VERS = 2.0 CREATION_DATE = ORIGINATOR = OBJECT_NAME = SHIJIAN-6 02A (SJ-6 02A) OBJECT_ID = 2006-046A CENTER_NAME = EARTH REF_FRAME = TEME TIME_SYSTEM = UTC MEAN_ELEMENT_THEORY = SGP/SGP4 EPOCH = 2026-09-12T06:29:23.296992 MEAN_MOTION = 15.1777981 ECCENTRICITY = .00028593 INCLINATION = 97.6285 RA_OF_ASC_NODE = 297.0105 ARG_OF_PERICENTER = 167.8392 MEAN_ANOMALY = 192.2911 EPHEMERIS_TYPE = 0 CLASSIFICATION_TYPE = U NORAD_CAT_ID = 29505 ELEMENT_SET_NO = 999 REV_AT_EPOCH = 8547 BSTAR = .21941E-3 MEAN_MOTION_DOT = .43630E-4 MEAN_MOTION_DDOT = 0 CCSDS_OMM_VERS = 2.0 CREATION_DATE = ORIGINATOR = OBJECT_NAME = SHIJIAN-6 02B (SJ-6 02B) OBJECT_ID = 2006-046B CENTER_NAME = EARTH REF_FRAME = TEME TIME_SYSTEM = UTC MEAN_ELEMENT_THEORY = SGP/SGP4 EPOCH = 2026-09-12T07:36:03.585888 MEAN_MOTION = 15.01476579 ECCENTRICITY = .00160956 INCLINATION = 97.6994 RA_OF_ASC_NODE = 283.7834 ARG_OF_PERICENTER = 133.6423 MEAN_ANOMALY = 226.6139 EPHEMERIS_TYPE = 0 CLASSIFICATION_TYPE = U NORAD_CAT_ID = 29506 ELEMENT_SET_NO = 999 REV_AT_EPOCH = 8381 BSTAR = .23670E-4 MEAN_MOTION_DOT = .24600E-5 MEAN_MOTION_DDOT = 0 CCSDS_OMM_VERS = 2.0 CREATION_DATE = ORIGINATOR = OBJECT_NAME = FGRST (GLAST) OBJECT_ID = 2008-029A CENTER_NAME = EARTH REF_FRAME = TEME TIME_SYSTEM = UTC MEAN_ELEMENT_THEORY = SGP/SGP4 EPOCH = 2026-09-12T07:16:54.312096 MEAN_MOTION = 15.24338581 ECCENTRICITY = .00074639 INCLINATION = 25.583 RA_OF_ASC_NODE = 319.4079 ARG_OF_PERICENTER = 274.8901 MEAN_ANOMALY = 85.0785 EPHEMERIS_TYPE = 0 CLASSIFICATION_TYPE = U NORAD_CAT_ID = 33053 ELEMENT_SET_NO = 999 REV_AT_EPOCH = 899 BSTAR = .83961E-4 MEAN_MOTION_DOT = .24520E-4 MEAN_MOTION_DDOT = 0 CCSDS_OMM_VERS = 2.0 CREATION_DATE = ORIGINATOR = OBJECT_NAME = SDO OBJECT_ID = 2010-005A CENTER_NAME = EARTH REF_FRAME = TEME TIME_SYSTEM = UTC MEAN_ELEMENT_THEORY = SGP/SGP4 EPOCH = 2026-09-12T01:26:30.969888 MEAN_MOTION = 1.00274865 ECCENTRICITY = .00017254 INCLINATION = 34.8306 RA_OF_ASC_NODE = 85.0195 ARG_OF_PERICENTER = 72.3988 MEAN_ANOMALY = 113.6531 EPHEMERIS_TYPE = 0 CLASSIFICATION_TYPE = U NORAD_CAT_ID = 36395 ELEMENT_SET_NO = 999 REV_AT_EPOCH = 6093 BSTAR = 0 MEAN_MOTION_DOT = -.68000E-6 MEAN_MOTION_DDOT = 0 CCSDS_OMM_VERS = 2.0 CREATION_DATE = ORIGINATOR = OBJECT_NAME = CRYOSAT 2 OBJECT_ID = 2010-013A CENTER_NAME = EARTH REF_FRAME = TEME TIME_SYSTEM = UTC MEAN_ELEMENT_THEORY = SGP/SGP4 EPOCH = 2026-09-12T06:22:17.443488 MEAN_MOTION = 14.51904265 ECCENTRICITY = .00023983 INCLINATION = 92.0283 RA_OF_ASC_NODE = 298.4493 ARG_OF_PERICENTER = 84.6601 MEAN_ANOMALY = 275.488 EPHEMERIS_TYPE = 0 CLASSIFICATION_TYPE = U NORAD_CAT_ID = 36508 ELEMENT_SET_NO = 999 REV_AT_EPOCH = 87071 BSTAR = .13858E-4 MEAN_MOTION_DOT = .59000E-6 MEAN_MOTION_DDOT = 0 CCSDS_OMM_VERS = 2.0 CREATION_DATE = ORIGINATOR = OBJECT_NAME = X-SAT OBJECT_ID = 2011-015C CENTER_NAME = EARTH REF_FRAME = TEME TIME_SYSTEM = UTC MEAN_ELEMENT_THEORY = SGP/SGP4 EPOCH = 2026-09-12T05:01:33.589920 MEAN_MOTION = 14.25227034 ECCENTRICITY = .00152884 INCLINATION = 98.3613 RA_OF_ASC_NODE = 228.13 ARG_OF_PERICENTER = 87.1147 MEAN_ANOMALY = 273.1783 EPHEMERIS_TYPE = 0 CLASSIFICATION_TYPE = U NORAD_CAT_ID = 37389 ELEMENT_SET_NO = 999 REV_AT_EPOCH = 80007 BSTAR = -.13729E-4 MEAN_MOTION_DOT = -.73000E-6 MEAN_MOTION_DDOT = 0 CCSDS_OMM_VERS = 2.0 CREATION_DATE = ORIGINATOR = OBJECT_NAME = GCOM-W1 (SHIZUKU) OBJECT_ID = 2012-025A CENTER_NAME = EARTH REF_FRAME = TEME TIME_SYSTEM = UTC MEAN_ELEMENT_THEORY = SGP/SGP4 EPOCH = 2026-09-12T07:56:13.510752 MEAN_MOTION = 14.57132154 ECCENTRICITY = .00014777 INCLINATION = 98.2063 RA_OF_ASC_NODE = 194.5789 ARG_OF_PERICENTER = 87.2935 MEAN_ANOMALY = 74.2461 EPHEMERIS_TYPE = 0 CLASSIFICATION_TYPE = U NORAD_CAT_ID = 38337 ELEMENT_SET_NO = 999 REV_AT_EPOCH = 76172 BSTAR = .75198E-4 MEAN_MOTION_DOT = .29400E-5 MEAN_MOTION_DDOT = 0 CCSDS_OMM_VERS = 2.0 CREATION_DATE = ORIGINATOR = OBJECT_NAME = NUSTAR OBJECT_ID = 2012-031A CENTER_NAME = EARTH REF_FRAME = TEME TIME_SYSTEM = UTC MEAN_ELEMENT_THEORY = SGP/SGP4 EPOCH = 2026-09-12T08:00:01.999872 MEAN_MOTION = 15.09519641 ECCENTRICITY = .00087565 INCLINATION = 6.0271 RA_OF_ASC_NODE = 100.0747 ARG_OF_PERICENTER = 318.805 MEAN_ANOMALY = 50.8558 EPHEMERIS_TYPE = 0 CLASSIFICATION_TYPE = U NORAD_CAT_ID = 38358 ELEMENT_SET_NO = 999 REV_AT_EPOCH = 130 BSTAR = .70554E-4 MEAN_MOTION_DOT = .20270E-4 MEAN_MOTION_DDOT = 0 CCSDS_OMM_VERS = 2.0 CREATION_DATE = ORIGINATOR = OBJECT_NAME = NEOSSAT OBJECT_ID = 2013-009D CENTER_NAME = EARTH REF_FRAME = TEME TIME_SYSTEM = UTC MEAN_ELEMENT_THEORY = SGP/SGP4 EPOCH = 2026-09-12T00:54:50.188896 MEAN_MOTION = 14.35852381 ECCENTRICITY = .0010842 INCLINATION = 98.4225 RA_OF_ASC_NODE = 73.0349 ARG_OF_PERICENTER = 354.0028 MEAN_ANOMALY = 6.1026 EPHEMERIS_TYPE = 0 CLASSIFICATION_TYPE = U NORAD_CAT_ID = 39089 ELEMENT_SET_NO = 999 REV_AT_EPOCH = 70920 BSTAR = .45653E-4 MEAN_MOTION_DOT = .89000E-6 MEAN_MOTION_DDOT = 0 CCSDS_OMM_VERS = 2.0 CREATION_DATE = ORIGINATOR = OBJECT_NAME = BRITE-AUSTRIA OBJECT_ID = 2013-009F CENTER_NAME = EARTH REF_FRAME = TEME TIME_SYSTEM = UTC MEAN_ELEMENT_THEORY = SGP/SGP4 EPOCH = 2026-09-12T01:30:46.800288 MEAN_MOTION = 14.36570644 ECCENTRICITY = .00098758 INCLINATION = 98.4046 RA_OF_ASC_NODE = 72.3795 ARG_OF_PERICENTER = 347.7117 MEAN_ANOMALY = 12.3827 EPHEMERIS_TYPE = 0 CLASSIFICATION_TYPE = U NORAD_CAT_ID = 39091 ELEMENT_SET_NO = 999 REV_AT_EPOCH = 70952 BSTAR = .47801E-4 MEAN_MOTION_DOT = .98000E-6 MEAN_MOTION_DDOT = 0 CCSDS_OMM_VERS = 2.0 CREATION_DATE = ORIGINATOR = OBJECT_NAME = IRIS OBJECT_ID = 2013-033A CENTER_NAME = EARTH REF_FRAME = TEME TIME_SYSTEM = UTC MEAN_ELEMENT_THEORY = SGP/SGP4 EPOCH = 2026-09-12T07:11:47.857344 MEAN_MOTION = 14.86032228 ECCENTRICITY = .00252738 INCLINATION = 97.9282 RA_OF_ASC_NODE = 94.2995 ARG_OF_PERICENTER = 36.5528 MEAN_ANOMALY = 323.7406 EPHEMERIS_TYPE = 0 CLASSIFICATION_TYPE = U NORAD_CAT_ID = 39197 ELEMENT_SET_NO = 999 REV_AT_EPOCH = 71331 BSTAR = .79622E-4 MEAN_MOTION_DOT = .64400E-5 MEAN_MOTION_DDOT = 0 CCSDS_OMM_VERS = 2.0 CREATION_DATE = ORIGINATOR = OBJECT_NAME = HISAKI (SPRINT-A) OBJECT_ID = 2013-049A CENTER_NAME = EARTH REF_FRAME = TEME TIME_SYSTEM = UTC MEAN_ELEMENT_THEORY = SGP/SGP4 EPOCH = 2026-09-12T00:48:59.075712 MEAN_MOTION = 13.55550441 ECCENTRICITY = .01364895 INCLINATION = 29.7188 RA_OF_ASC_NODE = 138.4712 ARG_OF_PERICENTER = 0.8446 MEAN_ANOMALY = 359.234 EPHEMERIS_TYPE = 0 CLASSIFICATION_TYPE = U NORAD_CAT_ID = 39253 ELEMENT_SET_NO = 999 REV_AT_EPOCH = 64321 BSTAR = .65412E-4 MEAN_MOTION_DOT = .11200E-5 MEAN_MOTION_DDOT = 0 CCSDS_OMM_VERS = 2.0 CREATION_DATE = ORIGINATOR = OBJECT_NAME = CASSIOPE OBJECT_ID = 2013-055A CENTER_NAME = EARTH REF_FRAME = TEME TIME_SYSTEM = UTC MEAN_ELEMENT_THEORY = SGP/SGP4 EPOCH = 2026-09-12T05:57:00.072864 MEAN_MOTION = 15.31351897 ECCENTRICITY = .02702952 INCLINATION = 80.9139 RA_OF_ASC_NODE = 320.5083 ARG_OF_PERICENTER = 127.5442 MEAN_ANOMALY = 235.069 EPHEMERIS_TYPE = 0 CLASSIFICATION_TYPE = U NORAD_CAT_ID = 39265 ELEMENT_SET_NO = 999 REV_AT_EPOCH = 68096 BSTAR = .37877E-3 MEAN_MOTION_DOT = .37946E-3 MEAN_MOTION_DDOT = -.58429E-6 CCSDS_OMM_VERS = 2.0 CREATION_DATE = ORIGINATOR = OBJECT_NAME = STSAT-3 OBJECT_ID = 2013-066G CENTER_NAME = EARTH REF_FRAME = TEME TIME_SYSTEM = UTC MEAN_ELEMENT_THEORY = SGP/SGP4 EPOCH = 2026-09-12T07:52:47.129664 MEAN_MOTION = 15.03168992 ECCENTRICITY = .001078 INCLINATION = 97.6309 RA_OF_ASC_NODE = 223.8664 ARG_OF_PERICENTER = 97.9076 MEAN_ANOMALY = 262.3373 EPHEMERIS_TYPE = 0 CLASSIFICATION_TYPE = U NORAD_CAT_ID = 39422 ELEMENT_SET_NO = 999 REV_AT_EPOCH = 69729 BSTAR = .22542E-3 MEAN_MOTION_DOT = .29890E-4 MEAN_MOTION_DDOT = 0 CCSDS_OMM_VERS = 2.0 CREATION_DATE = ORIGINATOR = OBJECT_NAME = SWARM B OBJECT_ID = 2013-067A CENTER_NAME = EARTH REF_FRAME = TEME TIME_SYSTEM = UTC MEAN_ELEMENT_THEORY = SGP/SGP4 EPOCH = 2026-09-12T06:08:59.995680 MEAN_MOTION = 15.29026961 ECCENTRICITY = .00034575 INCLINATION = 87.7445 RA_OF_ASC_NODE = 315.8802 ARG_OF_PERICENTER = 91.0145 MEAN_ANOMALY = 269.1501 EPHEMERIS_TYPE = 0 CLASSIFICATION_TYPE = U NORAD_CAT_ID = 39451 ELEMENT_SET_NO = 999 REV_AT_EPOCH = 69654 BSTAR = .80343E-4 MEAN_MOTION_DOT = .22990E-4 MEAN_MOTION_DDOT = 0 CCSDS_OMM_VERS = 2.0 CREATION_DATE = ORIGINATOR = OBJECT_NAME = SWARM A OBJECT_ID = 2013-067B CENTER_NAME = EARTH REF_FRAME = TEME TIME_SYSTEM = UTC MEAN_ELEMENT_THEORY = SGP/SGP4 EPOCH = 2026-09-12T08:08:08.649600 MEAN_MOTION = 15.50718113 ECCENTRICITY = .0002345 INCLINATION = 87.3354 RA_OF_ASC_NODE = 23.8574 ARG_OF_PERICENTER = 99.2125 MEAN_ANOMALY = 260.9401 EPHEMERIS_TYPE = 0 CLASSIFICATION_TYPE = U NORAD_CAT_ID = 39452 ELEMENT_SET_NO = 999 REV_AT_EPOCH = 71975 BSTAR = .15238E-3 MEAN_MOTION_DOT = .87950E-4 MEAN_MOTION_DDOT = 0 CCSDS_OMM_VERS = 2.0 CREATION_DATE = ORIGINATOR = OBJECT_NAME = SWARM C OBJECT_ID = 2013-067C CENTER_NAME = EARTH REF_FRAME = TEME TIME_SYSTEM = UTC MEAN_ELEMENT_THEORY = SGP/SGP4 EPOCH = 2026-09-12T08:07:58.959840 MEAN_MOTION = 15.50716618 ECCENTRICITY = .00023483 INCLINATION = 87.3358 RA_OF_ASC_NODE = 22.4403 ARG_OF_PERICENTER = 99.526 MEAN_ANOMALY = 260.6267 EPHEMERIS_TYPE = 0 CLASSIFICATION_TYPE = U NORAD_CAT_ID = 39453 ELEMENT_SET_NO = 999 REV_AT_EPOCH = 71971 BSTAR = .14665E-3 MEAN_MOTION_DOT = .84650E-4 MEAN_MOTION_DDOT = 0 CCSDS_OMM_VERS = 2.0 CREATION_DATE = ORIGINATOR = OBJECT_NAME = BRITE-CA1 (TORONTO) OBJECT_ID = 2014-033L CENTER_NAME = EARTH REF_FRAME = TEME TIME_SYSTEM = UTC MEAN_ELEMENT_THEORY = SGP/SGP4 EPOCH = 2026-09-12T03:19:39.965664 MEAN_MOTION = 14.72810461 ECCENTRICITY = .00783486 INCLINATION = 97.9852 RA_OF_ASC_NODE = 22.5213 ARG_OF_PERICENTER = 359.5828 MEAN_ANOMALY = 0.5301 EPHEMERIS_TYPE = 0 CLASSIFICATION_TYPE = U NORAD_CAT_ID = 40020 ELEMENT_SET_NO = 999 REV_AT_EPOCH = 65501 BSTAR = .73123E-4 MEAN_MOTION_DOT = .43600E-5 MEAN_MOTION_DDOT = 0 CCSDS_OMM_VERS = 2.0 CREATION_DATE = ORIGINATOR = OBJECT_NAME = OCO 2 OBJECT_ID = 2014-035A CENTER_NAME = EARTH REF_FRAME = TEME TIME_SYSTEM = UTC MEAN_ELEMENT_THEORY = SGP/SGP4 EPOCH = 2026-09-12T03:49:13.863072 MEAN_MOTION = 14.57087933 ECCENTRICITY = .00016736 INCLINATION = 98.2062 RA_OF_ASC_NODE = 195.1438 ARG_OF_PERICENTER = 80.3099 MEAN_ANOMALY = 279.8288 EPHEMERIS_TYPE = 0 CLASSIFICATION_TYPE = U NORAD_CAT_ID = 40059 ELEMENT_SET_NO = 999 REV_AT_EPOCH = 64871 BSTAR = .65410E-4 MEAN_MOTION_DOT = .24900E-5 MEAN_MOTION_DDOT = 0 CCSDS_OMM_VERS = 2.0 CREATION_DATE = ORIGINATOR = OBJECT_NAME = BRITE-PL2 (HEWELIUSZ) OBJECT_ID = 2014-049B CENTER_NAME = EARTH REF_FRAME = TEME TIME_SYSTEM = UTC MEAN_ELEMENT_THEORY = SGP/SGP4 EPOCH = 2026-09-12T03:09:14.379552 MEAN_MOTION = 14.94848763 ECCENTRICITY = .00140473 INCLINATION = 97.9165 RA_OF_ASC_NODE = 7.8481 ARG_OF_PERICENTER = 175.1387 MEAN_ANOMALY = 184.9972 EPHEMERIS_TYPE = 0 CLASSIFICATION_TYPE = U NORAD_CAT_ID = 40119 ELEMENT_SET_NO = 999 REV_AT_EPOCH = 65443 BSTAR = .16542E-3 MEAN_MOTION_DOT = .17450E-4 MEAN_MOTION_DDOT = 0 CCSDS_OMM_VERS = 2.0 CREATION_DATE = ORIGINATOR = OBJECT_NAME = MMS 1 OBJECT_ID = 2015-011A CENTER_NAME = EARTH REF_FRAME = TEME TIME_SYSTEM = UTC MEAN_ELEMENT_THEORY = SGP/SGP4 EPOCH = 2026-09-12T08:00:01.999872 MEAN_MOTION = 0.28342593 ECCENTRICITY = .82599138 INCLINATION = 72.9221 RA_OF_ASC_NODE = 347.7877 ARG_OF_PERICENTER = 169.3357 MEAN_ANOMALY = 188.1776 EPHEMERIS_TYPE = 0 CLASSIFICATION_TYPE = U NORAD_CAT_ID = 40482 ELEMENT_SET_NO = 999 REV_AT_EPOCH = 140 BSTAR = 0 MEAN_MOTION_DOT = -.17920E-4 MEAN_MOTION_DDOT = 0 CCSDS_OMM_VERS = 2.0 CREATION_DATE = ORIGINATOR = OBJECT_NAME = MMS 2 OBJECT_ID = 2015-011B CENTER_NAME = EARTH REF_FRAME = TEME TIME_SYSTEM = UTC MEAN_ELEMENT_THEORY = SGP/SGP4 EPOCH = 2026-09-12T08:00:01.999872 MEAN_MOTION = 0.28342545 ECCENTRICITY = .82627502 INCLINATION = 72.9265 RA_OF_ASC_NODE = 347.7866 ARG_OF_PERICENTER = 169.3371 MEAN_ANOMALY = 188.1566 EPHEMERIS_TYPE = 0 CLASSIFICATION_TYPE = U NORAD_CAT_ID = 40483 ELEMENT_SET_NO = 999 REV_AT_EPOCH = 140 BSTAR = 0 MEAN_MOTION_DOT = -.17930E-4 MEAN_MOTION_DDOT = 0 CCSDS_OMM_VERS = 2.0 CREATION_DATE = ORIGINATOR = OBJECT_NAME = MMS 3 OBJECT_ID = 2015-011C CENTER_NAME = EARTH REF_FRAME = TEME TIME_SYSTEM = UTC MEAN_ELEMENT_THEORY = SGP/SGP4 EPOCH = 2026-09-12T08:00:01.999872 MEAN_MOTION = 0.28342646 ECCENTRICITY = .82611981 INCLINATION = 72.9269 RA_OF_ASC_NODE = 347.7986 ARG_OF_PERICENTER = 169.3458 MEAN_ANOMALY = 188.1309 EPHEMERIS_TYPE = 0 CLASSIFICATION_TYPE = U NORAD_CAT_ID = 40484 ELEMENT_SET_NO = 999 REV_AT_EPOCH = 140 BSTAR = 0 MEAN_MOTION_DOT = -.17930E-4 MEAN_MOTION_DDOT = 0 CCSDS_OMM_VERS = 2.0 CREATION_DATE = ORIGINATOR = OBJECT_NAME = MMS 4 OBJECT_ID = 2015-011D CENTER_NAME = EARTH REF_FRAME = TEME TIME_SYSTEM = UTC MEAN_ELEMENT_THEORY = SGP/SGP4 EPOCH = 2026-09-12T08:00:01.999872 MEAN_MOTION = 0.28342531 ECCENTRICITY = .82611902 INCLINATION = 72.9197 RA_OF_ASC_NODE = 347.7826 ARG_OF_PERICENTER = 169.3555 MEAN_ANOMALY = 188.1263 EPHEMERIS_TYPE = 0 CLASSIFICATION_TYPE = U NORAD_CAT_ID = 40485 ELEMENT_SET_NO = 999 REV_AT_EPOCH = 140 BSTAR = 0 MEAN_MOTION_DOT = -.17930E-4 MEAN_MOTION_DDOT = 0 CCSDS_OMM_VERS = 2.0 CREATION_DATE = ORIGINATOR = OBJECT_NAME = ASTROSAT OBJECT_ID = 2015-052A CENTER_NAME = EARTH REF_FRAME = TEME TIME_SYSTEM = UTC MEAN_ELEMENT_THEORY = SGP/SGP4 EPOCH = 2026-09-11T19:16:23.601216 MEAN_MOTION = 14.82637343 ECCENTRICITY = .00079461 INCLINATION = 5.9967 RA_OF_ASC_NODE = 251.8326 ARG_OF_PERICENTER = 195.9703 MEAN_ANOMALY = 164.0174 EPHEMERIS_TYPE = 0 CLASSIFICATION_TYPE = U NORAD_CAT_ID = 40930 ELEMENT_SET_NO = 999 REV_AT_EPOCH = 59270 BSTAR = .80889E-4 MEAN_MOTION_DOT = .13380E-4 MEAN_MOTION_DDOT = 0 CCSDS_OMM_VERS = 2.0 CREATION_DATE = ORIGINATOR = OBJECT_NAME = DAMPE OBJECT_ID = 2015-078A CENTER_NAME = EARTH REF_FRAME = TEME TIME_SYSTEM = UTC MEAN_ELEMENT_THEORY = SGP/SGP4 EPOCH = 2026-09-12T07:09:42.018336 MEAN_MOTION = 15.30971272 ECCENTRICITY = .00132627 INCLINATION = 97.4592 RA_OF_ASC_NODE = 261.2229 ARG_OF_PERICENTER = 121.6003 MEAN_ANOMALY = 238.6534 EPHEMERIS_TYPE = 0 CLASSIFICATION_TYPE = U NORAD_CAT_ID = 41173 ELEMENT_SET_NO = 999 REV_AT_EPOCH = 59787 BSTAR = .28477E-4 MEAN_MOTION_DOT = .77600E-5 MEAN_MOTION_DDOT = 0 CCSDS_OMM_VERS = 2.0 CREATION_DATE = ORIGINATOR = OBJECT_NAME = PISAT OBJECT_ID = 2016-059B CENTER_NAME = EARTH REF_FRAME = TEME TIME_SYSTEM = UTC MEAN_ELEMENT_THEORY = SGP/SGP4 EPOCH = 2026-09-12T06:13:34.117824 MEAN_MOTION = 14.69120723 ECCENTRICITY = .00275392 INCLINATION = 97.8244 RA_OF_ASC_NODE = 252.0036 ARG_OF_PERICENTER = 288.4502 MEAN_ANOMALY = 71.3712 EPHEMERIS_TYPE = 0 CLASSIFICATION_TYPE = U NORAD_CAT_ID = 41784 ELEMENT_SET_NO = 999 REV_AT_EPOCH = 53252 BSTAR = .11492E-3 MEAN_MOTION_DOT = .63100E-5 MEAN_MOTION_DDOT = 0 CCSDS_OMM_VERS = 2.0 CREATION_DATE = ORIGINATOR = OBJECT_NAME = HXMT (HUIYAN) OBJECT_ID = 2017-034A CENTER_NAME = EARTH REF_FRAME = TEME TIME_SYSTEM = UTC MEAN_ELEMENT_THEORY = SGP/SGP4 EPOCH = 2026-09-12T03:23:18.874752 MEAN_MOTION = 15.19110868 ECCENTRICITY = .0031975 INCLINATION = 43.0145 RA_OF_ASC_NODE = 58.6158 ARG_OF_PERICENTER = 334.7522 MEAN_ANOMALY = 25.1763 EPHEMERIS_TYPE = 0 CLASSIFICATION_TYPE = U NORAD_CAT_ID = 42758 ELEMENT_SET_NO = 999 REV_AT_EPOCH = 51088 BSTAR = .17389E-3 MEAN_MOTION_DOT = .35200E-4 MEAN_MOTION_DDOT = 0 CCSDS_OMM_VERS = 2.0 CREATION_DATE = ORIGINATOR = OBJECT_NAME = FLYING LAPTOP OBJECT_ID = 2017-042G CENTER_NAME = EARTH REF_FRAME = TEME TIME_SYSTEM = UTC MEAN_ELEMENT_THEORY = SGP/SGP4 EPOCH = 2026-09-12T07:02:12.418656 MEAN_MOTION = 15.01579794 ECCENTRICITY = .00162214 INCLINATION = 97.4996 RA_OF_ASC_NODE = 47.7012 ARG_OF_PERICENTER = 183.7209 MEAN_ANOMALY = 176.3898 EPHEMERIS_TYPE = 0 CLASSIFICATION_TYPE = U NORAD_CAT_ID = 42831 ELEMENT_SET_NO = 999 REV_AT_EPOCH = 49952 BSTAR = .12760E-3 MEAN_MOTION_DOT = .15990E-4 MEAN_MOTION_DDOT = 0 CCSDS_OMM_VERS = 2.0 CREATION_DATE = ORIGINATOR = OBJECT_NAME = ZHANGHENG 1-01 (CSES-1) OBJECT_ID = 2018-015C CENTER_NAME = EARTH REF_FRAME = TEME TIME_SYSTEM = UTC MEAN_ELEMENT_THEORY = SGP/SGP4 EPOCH = 2026-09-12T07:36:50.243616 MEAN_MOTION = 15.20589907 ECCENTRICITY = .00137864 INCLINATION = 97.6953 RA_OF_ASC_NODE = 62.7536 ARG_OF_PERICENTER = 339.0201 MEAN_ANOMALY = 21.0466 EPHEMERIS_TYPE = 0 CLASSIFICATION_TYPE = U NORAD_CAT_ID = 43194 ELEMENT_SET_NO = 999 REV_AT_EPOCH = 47788 BSTAR = .20168E-3 MEAN_MOTION_DOT = .43560E-4 MEAN_MOTION_DDOT = 0 CCSDS_OMM_VERS = 2.0 CREATION_DATE = ORIGINATOR = OBJECT_NAME = SALSAT OBJECT_ID = 2020-068K CENTER_NAME = EARTH REF_FRAME = TEME TIME_SYSTEM = UTC MEAN_ELEMENT_THEORY = SGP/SGP4 EPOCH = 2026-09-11T23:28:21.147456 MEAN_MOTION = 15.30885844 ECCENTRICITY = .00094697 INCLINATION = 97.888 RA_OF_ASC_NODE = 263.4175 ARG_OF_PERICENTER = 9.1845 MEAN_ANOMALY = 350.9566 EPHEMERIS_TYPE = 0 CLASSIFICATION_TYPE = U NORAD_CAT_ID = 46495 ELEMENT_SET_NO = 999 REV_AT_EPOCH = 32863 BSTAR = .20261E-3 MEAN_MOTION_DOT = .59680E-4 MEAN_MOTION_DDOT = 0 CCSDS_OMM_VERS = 2.0 CREATION_DATE = ORIGINATOR = OBJECT_NAME = IXPE OBJECT_ID = 2021-121A CENTER_NAME = EARTH REF_FRAME = TEME TIME_SYSTEM = UTC MEAN_ELEMENT_THEORY = SGP/SGP4 EPOCH = 2026-09-12T08:00:01.999872 MEAN_MOTION = 15.10948202 ECCENTRICITY = .00072602 INCLINATION = 0.2305 RA_OF_ASC_NODE = 18.1297 ARG_OF_PERICENTER = 321.2451 MEAN_ANOMALY = 28.4444 EPHEMERIS_TYPE = 0 CLASSIFICATION_TYPE = U NORAD_CAT_ID = 49954 ELEMENT_SET_NO = 999 REV_AT_EPOCH = 544 BSTAR = .41881E-3 MEAN_MOTION_DOT = .81290E-4 MEAN_MOTION_DDOT = 0 CCSDS_OMM_VERS = 2.0 CREATION_DATE = ORIGINATOR = OBJECT_NAME = SMILE OBJECT_ID = 2026-109A CENTER_NAME = EARTH REF_FRAME = TEME TIME_SYSTEM = UTC MEAN_ELEMENT_THEORY = SGP/SGP4 EPOCH = 2026-09-08T19:23:04.222464 MEAN_MOTION = 0.47517332 ECCENTRICITY = .81869537 INCLINATION = 70.0169 RA_OF_ASC_NODE = 206.2692 ARG_OF_PERICENTER = 285.8683 MEAN_ANOMALY = 5.3377 EPHEMERIS_TYPE = 0 CLASSIFICATION_TYPE = U NORAD_CAT_ID = 69123 ELEMENT_SET_NO = 999 REV_AT_EPOCH = 34 BSTAR = 0 MEAN_MOTION_DOT = .48500E-5 MEAN_MOTION_DDOT = 0